Santa Rosa, CA

4:21 PM PST on November 14, 2019 (GMT -0800)
Sonoma County

Weather History for KSTS - September, 2019

Change the Weather History Date:

Saturday, September 21, 2019

  Actual Average Record
Temperature  
Mean Temperature 70 °F 66 °F  
Max Temperature 91 °F 83 °F 103 °F (2003)
Min Temperature 49 °F 49 °F 40 °F (2012)
Degree Days  
Heating Degree Days 0    
Month to date heating degree days 3  
Since 1 July heating degree days 5  
Cooling Degree Days 5    
Month to date cooling degree days 86  
Year to date cooling degree days 499  
Growing Degree Days 20 (Base 50)    
Moisture  
Dew Point 48 °F    
Average Humidity 54    
Maximum Humidity 89    
Minimum Humidity 19    
Precipitation  
Precipitation 0.00 in 0.02 in 0.24 in (2013)
Month to date precipitation 0.13 0.15  
Year to date precipitation 38.52 22.33  
Sea Level Pressure  
Sea Level Pressure 29.90 in    
Wind  
Wind Speed 5 mph (WSW)    
Max Wind Speed 17 mph    
Max Gust Speed 23 mph    
Visibility 10 miles    
Events      
T = Trace of Precipitation, MM = Missing Value Source: NWS Daily Summary

Daily Weather History Graph

Daily Weather History Graph

Search for Another Location

Airport or City:

Astronomy

Sep. 21, 2019 Rise Set
Actual Time 6:57 AM PDT 7:10 PM PDT
Civil Twilight 6:31 AM PDT 7:36 PM PDT
Nautical Twilight 6:00 AM PDT 8:07 PM PDT
Astronomical Twilight 5:28 AM PDT 8:38 PM PDT
Moon 11:57 PM PDT (9/21) 2:04 PM PDT (9/21)
Length of Visible Light 13h 04m
Length of Day
12h 12m
Waning Gibbous, 53% of the Moon is Illuminated
Sep 21
Waning Gibbous
Sep 21
Last Quarter
Sep 28
New
Oct 5
First Quarter
Oct 13
Full

Hourly Weather History & Observations

Time (PDT) Temp. Dew Point Humidity Pressure Visibility Wind Dir Wind Speed Gust Speed Precip Events Conditions
12:53 AM 55.0 °F 50.0 °F 83% 29.91 in 10.0 mi NW 6.9 mph - N/A   Clear
1:53 AM 54.0 °F 48.9 °F 83% 29.93 in 10.0 mi Calm Calm - N/A   Clear
2:53 AM 52.0 °F 48.9 °F 89% 29.93 in 10.0 mi WNW 4.6 mph - N/A   Clear
3:53 AM 51.1 °F 48.9 °F 92% 29.92 in 10.0 mi NW 4.6 mph - N/A   Clear
4:53 AM 52.0 °F 48.0 °F 86% 29.92 in 10.0 mi Calm Calm - N/A   Clear
5:53 AM 50.0 °F 46.9 °F 89% 29.93 in 10.0 mi Calm Calm - N/A   Clear
6:53 AM 51.1 °F 48.0 °F 89% 29.94 in 10.0 mi West 3.5 mph - N/A   Clear
7:53 AM 55.0 °F 51.1 °F 86% 29.95 in 10.0 mi Calm Calm - N/A   Clear
8:53 AM 63.0 °F 53.1 °F 70% 29.96 in 10.0 mi Calm Calm - N/A   Clear
9:53 AM 73.0 °F 52.0 °F 48% 29.96 in 10.0 mi Variable 5.8 mph - N/A   Clear
10:53 AM 80.1 °F 51.1 °F 36% 29.95 in 10.0 mi WNW 5.8 mph - N/A   Clear
11:23 AM 84.0 °F 48.9 °F 29% 29.95 in 10.0 mi NW 8.1 mph - N/A   Clear
11:53 AM 86.0 °F 45.0 °F 24% 29.93 in 10.0 mi NW 8.1 mph - N/A   Clear
12:53 PM 88.0 °F 42.1 °F 20% 29.90 in 10.0 mi NW 4.6 mph - N/A   Clear
1:53 PM 90.0 °F 42.1 °F 19% 29.88 in 10.0 mi West 9.2 mph - N/A   Clear
2:53 PM 90.0 °F 41.0 °F 18% 29.85 in 10.0 mi SW 6.9 mph - N/A   Clear
3:53 PM 87.1 °F 45.0 °F 23% 29.84 in 10.0 mi WSW 15.0 mph - N/A   Clear
4:53 PM 84.9 °F 44.1 °F 24% 29.84 in 10.0 mi WSW 12.7 mph - N/A   Clear
5:24 PM 84.0 °F 45.0 °F 25% 29.86 in 10.0 mi SSW 8.1 mph - N/A   Clear
5:53 PM 82.9 °F 45.0 °F 26% 29.85 in 10.0 mi SSW 5.8 mph - N/A   Clear
6:53 PM 78.1 °F 45.0 °F 31% 29.86 in 10.0 mi South 5.8 mph - N/A   Clear
7:53 PM 70.0 °F 50.0 °F 49% 29.86 in 10.0 mi SSE 5.8 mph - N/A   Clear
8:53 PM 64.9 °F 51.1 °F 61% 29.89 in 10.0 mi South 4.6 mph - N/A   Clear
9:53 PM 62.1 °F 52.0 °F 70% 29.89 in 10.0 mi South 3.5 mph - N/A   Clear
10:53 PM 59.0 °F 52.0 °F 78% 29.89 in 10.0 mi SE 3.5 mph - N/A   Clear
11:53 PM 55.9 °F 51.1 °F 84% 29.89 in 10.0 mi Calm Calm - N/A   Clear